Location: Buckenweiler
(49.0667°N, 10.2500°E)
Time: 08:43:56
(UTC+00:00)

Cosmos 2074 Rocket - Pass Details

Date: 18 January 2026
Orbit: 965 x 986 km, 82.9° (Epoch: 14 February)

Event Time Altitude Azimuth Distance (km) Brightness Sun altitude
Rises 05:14:14 0° 205° (SSW) 3,683 6.9 -17.8°
Reaches altitude 10° 05:16:50 10° 211° (SSW) 2,739 6.2 -17.4°
Maximum altitude 05:22:55 50° 285° (WNW) 1,240 4.1 -16.4°
Drops below altitude 10° 05:29:02 10° 1° (N) 2,749 6.2 -15.4°
Sets 05:31:40 0° 7° (N) 3,699 7.0 -15.0°
